TimeEDT,TemperatureF,Dew PointF,Humidity,Sea Level PressureIn,VisibilityMPH,Wind Direction,Wind SpeedMPH,Gust SpeedMPH,PrecipitationIn,Events,Conditions,WindDirDegrees,DateUTC
12:28 AM,75.2,69.8,83,29.90,10.0,East,5.8,-,0.01,Rain,Light Rain,90,2013-07-01 04:28:00
12:35 AM,75.2,71.6,89,29.90,10.0,ESE,6.9,-,0.01,Rain,Light Rain,110,2013-07-01 04:35:00
12:51 AM,75.0,71.1,87,29.89,10.0,East,5.8,-,0.01,Rain,Light Rain,90,2013-07-01 04:51:00
1:51 AM,73.9,71.1,91,29.88,8.0,East,5.8,-,0.02,Rain,Light Rain,100,2013-07-01 05:51:00
2:05 AM,73.4,71.6,94,29.89,10.0,East,5.8,-,0.00,,Overcast,90,2013-07-01 06:05:00
2:44 AM,73.4,71.6,94,29.89,1.8,East,8.1,-,0.13,Rain,Heavy Rain,100,2013-07-01 06:44:00
2:51 AM,73.0,72.0,96,29.88,2.5,East,6.9,-,0.21,Rain,Rain,100,2013-07-01 06:51:00
2:56 AM,73.4,71.6,94,29.88,5.0,East,6.9,-,0.01,Rain,Light Rain,100,2013-07-01 06:56:00
3:26 AM,73.4,71.6,94,29.87,2.0,ESE,6.9,-,0.17,Rain,Heavy Rain,110,2013-07-01 07:26:00
3:34 AM,73.4,71.6,94,29.88,3.0,Calm,Calm,-,0.23,Rain,Light Rain,0,2013-07-01 07:34:00
3:51 AM,72.0,71.1,97,29.88,10.0,ESE,3.5,-,0.23,Rain,Light Rain,110,2013-07-01 07:51:00
4:00 AM,71.6,71.6,100,29.89,10.0,Calm,Calm,-,N/A,,Overcast,0,2013-07-01 08:00:00
4:30 AM,73.4,69.8,88,29.90,10.0,Variable,5.8,-,0.00,Rain,Light Rain,0,2013-07-01 08:30:00
4:37 AM,71.6,69.8,94,29.90,10.0,NW,4.6,-,0.00,Rain,Light Rain,320,2013-07-01 08:37:00
4:51 AM,72.0,70.0,93,29.89,10.0,Calm,Calm,-,0.00,,Mostly Cloudy,0,2013-07-01 08:51:00
5:04 AM,71.6,69.8,94,29.90,10.0,NNE,4.6,-,0.01,Rain,Light Rain,20,2013-07-01 09:04:00
5:51 AM,72.0,70.0,93,29.91,10.0,East,3.5,-,0.01,,Mostly Cloudy,80,2013-07-01 09:51:00
6:35 AM,71.6,69.8,94,29.93,10.0,East,6.9,-,0.00,Rain,Light Rain,100,2013-07-01 10:35:00
6:51 AM,71.1,70.0,96,29.91,4.0,East,5.8,-,0.04,Rain,Rain,80,2013-07-01 10:51:00
7:18 AM,71.6,69.8,94,29.92,5.0,NE,3.5,-,0.06,Rain,Rain,50,2013-07-01 11:18:00
7:51 AM,71.1,70.0,96,29.92,3.0,ENE,5.8,-,0.14,Rain,Rain,60,2013-07-01 11:51:00
8:10 AM,71.6,69.8,94,29.94,5.0,ESE,4.6,-,0.03,Rain,Light Rain,110,2013-07-01 12:10:00
8:20 AM,71.6,69.8,94,29.94,10.0,ESE,5.8,-,0.03,Rain,Light Rain,110,2013-07-01 12:20:00
8:51 AM,73.0,71.1,93,29.95,10.0,ESE,3.5,-,0.03,Rain,Light Rain,110,2013-07-01 12:51:00
9:15 AM,73.4,71.6,94,29.96,10.0,Calm,Calm,-,N/A,,Mostly Cloudy,0,2013-07-01 13:15:00
9:51 AM,75.0,71.1,87,29.95,10.0,Variable,4.6,-,N/A,,Mostly Cloudy,0,2013-07-01 13:51:00
10:51 AM,75.0,71.1,87,29.96,7.0,Calm,Calm,-,0.01,Rain,Light Rain,0,2013-07-01 14:51:00
10:58 AM,75.2,71.6,89,29.96,10.0,ESE,3.5,-,0.00,Rain,Light Rain,110,2013-07-01 14:58:00
11:21 AM,77.0,71.6,83,29.96,10.0,SSE,3.5,-,0.00,,Mostly Cloudy,160,2013-07-01 15:21:00
11:51 AM,77.0,71.1,82,29.95,10.0,SSE,8.1,-,0.00,,Mostly Cloudy,160,2013-07-01 15:51:00
12:51 PM,78.1,72.0,81,29.95,10.0,ESE,5.8,-,N/A,,Overcast,120,2013-07-01 16:51:00
1:31 PM,75.2,71.6,89,29.95,1.2,SE,11.5,16.1,0.01,Rain,Heavy Rain,140,2013-07-01 17:31:00
1:37 PM,75.2,71.6,89,29.95,0.5,South,5.8,16.1,0.31,Fog-Rain,Heavy Rain,170,2013-07-01 17:37:00
1:48 PM,75.2,73.4,94,29.94,2.5,SE,5.8,-,0.46,Rain,Light Rain,140,2013-07-01 17:48:00
1:51 PM,75.0,73.0,94,29.94,7.0,SE,4.6,-,0.46,Rain,Light Rain,140,2013-07-01 17:51:00
2:12 PM,77.0,73.4,89,29.94,9.0,SE,3.5,-,0.01,Rain,Light Rain,140,2013-07-01 18:12:00
2:51 PM,77.0,73.0,88,29.94,10.0,SSE,5.8,-,0.01,,Mostly Cloudy,160,2013-07-01 18:51:00
3:19 PM,77.0,73.4,89,29.94,10.0,South,8.1,-,0.00,Rain,Light Rain,190,2013-07-01 19:19:00
3:40 PM,77.0,73.4,89,29.95,10.0,SSE,10.4,-,0.00,Rain,Light Rain,150,2013-07-01 19:40:00
3:51 PM,77.0,71.1,82,29.94,10.0,South,12.7,19.6,0.00,,Overcast,170,2013-07-01 19:51:00
4:15 PM,78.8,73.4,83,29.95,10.0,South,10.4,-,N/A,,Mostly Cloudy,180,2013-07-01 20:15:00
4:51 PM,77.0,71.1,82,29.94,10.0,South,12.7,23.0,N/A,,Mostly Cloudy,190,2013-07-01 20:51:00
5:51 PM,79.0,71.1,77,29.94,10.0,South,9.2,-,N/A,,Mostly Cloudy,170,2013-07-01 21:51:00
6:51 PM,78.1,70.0,76,29.96,10.0,South,11.5,-,N/A,,Mostly Cloudy,190,2013-07-01 22:51:00
6:58 PM,78.8,69.8,74,29.97,10.0,South,10.4,-,N/A,,Mostly Cloudy,190,2013-07-01 22:58:00
7:51 PM,78.1,71.1,79,29.97,10.0,South,10.4,-,N/A,,Mostly Cloudy,170,2013-07-01 23:51:00
8:51 PM,77.0,71.1,82,29.98,10.0,South,6.9,-,N/A,,Mostly Cloudy,170,2013-07-02 00:51:00
9:01 PM,77.0,71.6,83,29.99,10.0,South,5.8,-,N/A,,Mostly Cloudy,170,2013-07-02 01:01:00
9:33 PM,77.0,71.6,83,30.01,10.0,South,4.6,-,N/A,,Mostly Cloudy,170,2013-07-02 01:33:00
9:51 PM,77.0,71.1,82,30.01,10.0,South,4.6,-,N/A,,Mostly Cloudy,180,2013-07-02 01:51:00
10:12 PM,77.0,71.6,83,30.01,10.0,South,9.2,-,N/A,,Mostly Cloudy,180,2013-07-02 02:12:00
10:51 PM,77.0,71.1,82,30.01,10.0,South,8.1,-,N/A,,Mostly Cloudy,170,2013-07-02 02:51:00
11:51 PM,75.9,72.0,87,30.01,10.0,South,8.1,-,N/A,,Scattered Clouds,170,2013-07-02 03:51:00